Погода Бельцы

Погода Бельцы : погода сейчас, прогноз погоды и архив. Всё, что Вы хотите узнать о погоде Бельцы!

Поиск расширенной информации на нашем сайте:

Другие новости

Новости СМИ2

Главная страница сайта

Новости сайта

03.07.2017

Напоминаем, что на нашем специализированном сайте Метеоцентр.Азия вы можете получить высокодетализированные автоматические прогнозы погоды по пунктам России, СНГ и мира в авиационном формате (включающие направление и скорость ветра, видимость, явления погоды, количество и форму облачности, нижнюю и верхнюю границу облачности).


Погода Бельцы - сегодня

Время (UTC), дата Ветер
(°,м/с) 
Видим.   Явления Облачность Т
(°С)
Тd
(°С)
f(%) Тe
(°С)
Pmin
(гПа)
dP
(гПа)
Po
(мм)
O2
(г/м3)
Тmin Tmax R s Состояние
почвы
15 17.07.18 260 (З) 10 км    6/3 1000 м верхняя 
[Cu hum|Ci fib]
+25.7 +15.4 53 +35  1003  -0.8  739  269           
18 17.07.18 220 (ЮЗ) 10 км    8/4 400 м средняя 
[Sc diur, vesp|Ac trans]
+21.6 +17.6 78 +36  1003.6  0.3  739  272    +26.7       
21 17.07.18 230 (ЮЗ) 10 км    4/0 верхняя 
[Ci fib]
+18 +16.9 93 +32  1003.9  0.1  739  276           
00 18.07.18 тихо ()   10 км    6/0 средняя, верхняя 
[Ac trans|Ci fib]
+18 +16.5 91 +30  1003.5  -0.4  739  276           
03 18.07.18 260 (З) 10 км    4/3 600 м верхняя 
[Sc|Ci fib]
+16.7 +16.1 96 +29  1003.5  -0.1  739  277  +16.6         
06 18.07.18 290 (З) 10 км    8/4 360 м средняя, верхняя 
[Ac trans|Ci fib]
+21.5 +18.1 81 +37  1003.5  0.3  739  272  +16.6         
09 18.07.18 270 (З) 10 км    8/5 600 м кучево-дожд., верхняя 
[Cb cap|Cs]
+24.4 +16.1 60 +35  1002.7  -0.6  739  270           
12 18.07.18 270 (З) 10 км    9/6 600 м кучево-дожд., верхняя 
[Cb cap|Cs]
+25.8 +15.2 52 +35  1002  -0.6  738  269           
15 18.07.18 280 (З) 10 км    9/5 600 м кучево-дожд., верхняя 
[Cb cap|Cs]
+25 +15.3 55 +35  1002.1  738  269           
18 18.07.18 тихо ()   10 км    8/5 600 м кучево-дожд., средняя 
[Cb cap|Ac trans]
+22.2 +17.3 74 +36  1002.8  0.6  739  271    +26.3       
21 18.07.18 тихо ()   10 км  слаб. ливневой дождь  10/8 300 м кучево-дожд., средняя 
[Cb cap|Ac trans]
+19.7 +19 96 +37  1002.9  -0.1  739  273           
00 19.07.18 тихо ()   10 км  {ливн. осадки}  9/9 600 м кучево-дожд. 
[Cb cap]
+19.3 +19.1 99 +37  1002.3  -0.6  738  273           
03 19.07.18 310 (СЗ) 4000 м  дымка  8/6 600 м кучево-дожд., средняя 
[Cb cap|Ac trans]
+19.5 +19.5 100 +39  1002.5  0.2  738  273  +19.1         
06 19.07.18 320 (СЗ) 4000 м  дымка  9/9 600 м кучево-дожд. 
[Cb cap]
+20.4 +19.7 96 +39  1003.4  739  272  +1.9       
09 19.07.18 тихо ()   10 км    8/8 600 м кучево-дожд. 
[Cb cap]
+24.1 +20.6 81 +45  1003.5  0.3  739  269           
12 19.07.18 120 (ЮВ) 10 км  в посл. час гроза{ливн. осадки}  9/6 600 м кучево-дожд., средняя 
[Cb cap|Ac trans]
+26.2 +21.6 76 +49  1003  -0.3  739  266           
15 19.07.18 230 (ЮЗ) 10 км  {гроза}  6/4 600 м кучево-дожд., средняя 
[Cb cap|Ac trans]
+25.5 +20.7 75 +46  1003.9  0.8  740  267           
18 19.07.18 270 (З) 10 км  {гроза}  8/4 600 м кучево-дожд., средняя, верхняя 
[Cb cap|Ac trans|Ci fib]
+22.7 +19.3 81 +40  1005.5  1.4  741  271    +27     
21 19.07.18 270 (З) 10 км    8/3 600 м кучево-дожд., средняя, верхняя 
[Cb cap|Ac trans|Ci fib]
+20.4 +18.7 90 +37  1006.3  0.6  741  273           
00 20.07.18 270 (З) 10 км    8/0 средняя, верхняя 
[Ac trans|Ci fib]
+19.7 +18.9 95 +38  1006.6  0.3  741  274           
03 20.07.18 290 (З) 10 км    8/3 600 м верхняя 
[Sc|Ci fib]
+18.9 +18.4 97 +35  1007.4  0.7  742  275           
06 20.07.18 270 (З) 10 км    10/6 450 м кучево-дожд., средняя 
[Cb cap|Ac trans]
+20.2 +18.1 88 +35  1008.2  0.9  743  274  +18.7         
09 20.07.18 260 (З) 10 км    6/4 600 м кучево-дожд., средняя 
[Cb cap|Ac trans]
+23.6 +19.3 77 +41  1008  743  271           
12 20.07.18 270 (З) 10 км    8/8 600 м кучево-дожд. 
[Cb cap]
+26.6 +18.7 62 +43  1007.2  -0.6  742  268           
15 20.07.18 270 (З) 10 км    9/5 600 м кучево-дожд., верхняя 
[Cb cap|Cs]
+26.8 +17.3 56 +40  1006.7  -0.5  742  268           
Время (UTC), дата Ветер
(°,м/с) 
Видим.   Явления Облачность Т
(°С)
Тd
(°С)
f(%) Тe
(°С)
Pmin
(гПа)
dP
(гПа)
Po
(мм)
O2
(г/м3)
Тmin Tmax R s Состояние
почвы

Для получения пояснительной информации подведите курсор к названию столбца.

ПОГОДА Бельцы - архив

Всё, что Вы хотите узнать о погоде Бельцы - удобно и подробно!

Выберите нужную дату (начиная с 1 января 2015* года) и нажмите кнопку "Найти".
Будут отображены архивные сводки погоды по пункту Бельцы, начиная с указанной даты.


Отображать данные в формате CSV (для использования в таблицах Excel)


Внимание! Наш архив погоды предназначен исключительно для личного некоммерческого использования в познавательных целях. Если Вам необходимы официальные справки о состоянии погоды (для производственных, юридических, коммерческих и т.п. целей), обращайтесь в органы Росгидромета.

*Примечание: данная дата относится к архиву по метеостанциям СССР (Россия, СНГ, Балтия).
Архив по метеостанциям Зарубежной Европы и Азии (кроме Китая) хранится 10 дней, по другим регионам земного шара (Китай, Африка, Америка, Австралия, Океания) - 1 день.

Бельцы - район местоположения метеостанции


Название, широта, долгота, высота метеостанции:
Бельцы 47.8°ш. 27.9°д. 102 м над ур. моря [Молдавия]

Дополнительная информация

В oтличие oт бoльшинства пoгoдных сайтoв мы публикуем пoдрoбную метеoинфoрмацию в детальнoм прoфессиoнальнoм фoрмате.

Характеристики температуры и влажнoсти вoздуха измеряются на высoте 2 м в тени вдали oт зданий и деревьев.
Скoрoсть ветра измеряется на высoте 10 м (на урoвне рoста челoвека скoрoсть ветра ниже в 1.5-2 раза). Если метеoстанция нахoдится в гoрoде или в лесу, тo скoрoсть ветра занижена на 2-4 м/с пo сравнению с oткрытым местoм. Скoрoсть ветра над акватoриями крупных рек и oзёр, а также на вершинах хoлмoв на 2-5 м/с выше, чем в oбычных услoвиях.
Атмoсфернoе давление в разных тoчках местнoсти мoжет значительнo oтличаться oт давления на метеoстанции, в зависимoсти oт услoвий рельефа (при пoдъёме на 10 м давление пoнижается примернo на 1 мм рт.ст.).